Time,TemperatureF,DewpointF,PressureIn,WindDirection,WindDirectionDegrees,WindSpeedMPH,WindSpeedGustMPH,Humidity,HourlyPrecipIn,Conditions,Clouds,dailyrainin,SoftwareType,DateUTC
2013-05-29 00:02:00,49.5,46.4,29.76,WNW,294,0.0,4.0,89,0.00,,,0.03,meteohub,2013-05-28 23:02:00,
2013-05-29 00:07:00,49.3,46.2,29.76,WNW,294,0.0,4.0,89,0.00,,,0.00,meteohub,2013-05-28 23:07:00,
2013-05-29 00:12:00,48.9,45.9,29.76,WNW,294,0.0,4.0,89,0.00,,,0.00,meteohub,2013-05-28 23:12:00,
2013-05-29 00:17:00,48.9,45.9,29.76,WNW,294,0.0,4.0,89,0.00,,,0.00,meteohub,2013-05-28 23:17:00,
2013-05-29 00:22:00,48.7,45.9,29.76,WNW,294,0.0,4.0,90,0.00,,,0.00,meteohub,2013-05-28 23:22:00,
2013-05-29 00:27:00,48.6,45.7,29.77,WNW,294,0.0,1.0,90,0.00,,,0.00,meteohub,2013-05-28 23:27:00,
2013-05-29 00:32:00,48.4,45.5,29.77,WNW,294,0.0,4.0,90,0.00,,,0.00,meteohub,2013-05-28 23:32:00,
2013-05-29 00:37:00,48.4,45.9,29.76,WNW,294,0.0,4.0,91,0.00,,,0.00,meteohub,2013-05-28 23:37:00,
2013-05-29 00:42:00,48.4,45.5,29.76,WNW,294,0.0,5.0,90,0.00,,,0.00,meteohub,2013-05-28 23:42:00,
2013-05-29 00:47:00,48.0,45.5,29.76,WNW,294,0.0,5.0,91,0.00,,,0.00,meteohub,2013-05-28 23:47:00,
2013-05-29 00:52:00,48.0,45.5,29.76,WNW,294,2.0,5.0,91,0.00,,,0.00,meteohub,2013-05-28 23:52:00,
2013-05-29 00:57:00,47.8,45.3,29.76,WNW,294,0.0,4.0,91,0.00,,,0.00,meteohub,2013-05-28 23:57:00,
2013-05-29 01:02:00,47.8,45.3,29.76,WNW,294,0.0,2.0,91,0.00,,,0.00,meteohub,2013-05-29 00:02:00,
2013-05-29 01:07:00,47.8,45.3,29.77,WNW,294,0.0,2.0,91,0.00,,,0.00,meteohub,2013-05-29 00:07:00,
2013-05-29 01:12:00,47.7,45.1,29.77,WNW,294,2.0,2.0,91,0.00,,,0.00,meteohub,2013-05-29 00:12:00,
2013-05-29 01:17:00,47.5,45.0,29.77,WNW,294,0.0,4.0,91,0.00,,,0.00,meteohub,2013-05-29 00:17:00,
2013-05-29 01:22:00,47.7,45.5,29.77,WNW,294,1.0,4.0,92,0.00,,,0.00,meteohub,2013-05-29 00:22:00,
2013-05-29 01:27:00,47.7,45.5,29.77,WNW,294,0.0,4.0,92,0.00,,,0.00,meteohub,2013-05-29 00:27:00,
2013-05-29 01:32:00,47.5,45.3,29.77,WNW,294,1.0,2.0,92,0.00,,,0.00,meteohub,2013-05-29 00:32:00,
2013-05-29 01:37:00,47.5,45.3,29.77,WNW,294,1.0,2.0,92,0.00,,,0.00,meteohub,2013-05-29 00:37:00,
2013-05-29 01:42:00,46.8,44.2,29.77,WNW,294,0.0,2.0,91,0.00,,,0.00,meteohub,2013-05-29 00:42:00,
2013-05-29 01:47:00,46.2,44.1,29.78,WNW,294,0.0,2.0,92,0.00,,,0.00,meteohub,2013-05-29 00:47:00,
2013-05-29 01:52:00,46.2,44.1,29.78,WNW,294,0.0,1.0,92,0.00,,,0.00,meteohub,2013-05-29 00:52:00,
2013-05-29 01:57:00,46.0,43.9,29.78,WNW,294,1.0,2.0,92,0.00,,,0.00,meteohub,2013-05-29 00:57:00,
2013-05-29 02:02:00,45.9,43.7,29.78,WNW,294,0.0,2.0,92,0.00,,,0.00,meteohub,2013-05-29 01:02:00,
2013-05-29 02:07:00,45.9,43.7,29.78,WNW,294,0.0,2.0,92,0.00,,,0.00,meteohub,2013-05-29 01:07:00,
2013-05-29 02:12:00,45.7,43.7,29.78,WNW,294,0.0,1.0,93,0.00,,,0.00,meteohub,2013-05-29 01:12:00,
2013-05-29 02:17:00,45.7,43.7,29.79,WNW,294,0.0,0.0,93,0.00,,,0.00,meteohub,2013-05-29 01:17:00,
2013-05-29 02:22:00,45.5,43.5,29.79,WNW,294,0.0,0.0,93,0.00,,,0.00,meteohub,2013-05-29 01:22:00,
2013-05-29 02:27:00,45.7,43.7,29.79,WNW,294,0.0,0.0,93,0.00,,,0.00,meteohub,2013-05-29 01:27:00,
2013-05-29 02:32:00,46.0,44.1,29.79,WNW,294,0.0,2.0,93,0.00,,,0.00,meteohub,2013-05-29 01:32:00,
2013-05-29 02:37:00,46.2,44.2,29.79,WNW,294,0.0,2.0,93,0.00,,,0.00,meteohub,2013-05-29 01:37:00,
2013-05-29 02:42:00,46.0,44.1,29.79,WNW,294,0.0,2.0,93,0.00,,,0.00,meteohub,2013-05-29 01:42:00,
2013-05-29 02:47:00,45.1,43.2,29.79,WNW,294,0.0,0.0,93,0.00,,,0.00,meteohub,2013-05-29 01:47:00,
2013-05-29 02:52:00,44.8,42.6,29.78,WNW,294,0.0,1.0,92,0.00,,,0.00,meteohub,2013-05-29 01:52:00,
2013-05-29 02:57:00,45.3,43.3,29.79,WNW,294,0.0,1.0,93,0.00,,,0.00,meteohub,2013-05-29 01:57:00,
2013-05-29 03:02:00,45.7,43.7,29.79,WNW,294,0.0,1.0,93,0.00,,,0.00,meteohub,2013-05-29 02:02:00,
2013-05-29 03:07:00,45.9,43.9,29.79,WNW,294,2.0,4.0,93,0.00,,,0.00,meteohub,2013-05-29 02:07:00,
2013-05-29 03:12:00,46.0,44.1,29.79,WNW,294,1.0,4.0,93,0.00,,,0.00,meteohub,2013-05-29 02:12:00,
2013-05-29 03:17:00,46.0,44.1,29.79,WNW,294,0.0,4.0,93,0.00,,,0.00,meteohub,2013-05-29 02:17:00,
2013-05-29 03:22:00,46.0,44.1,29.79,WNW,294,0.0,2.0,93,0.00,,,0.00,meteohub,2013-05-29 02:22:00,
2013-05-29 03:27:00,46.2,44.2,29.79,WNW,294,0.0,2.0,93,0.00,,,0.00,meteohub,2013-05-29 02:27:00,
2013-05-29 03:32:00,46.2,44.2,29.79,WNW,294,0.0,2.0,93,0.00,,,0.00,meteohub,2013-05-29 02:32:00,
2013-05-29 03:37:00,46.2,44.2,29.80,WNW,294,1.0,2.0,93,0.00,,,0.00,meteohub,2013-05-29 02:37:00,
2013-05-29 03:42:00,46.2,44.2,29.80,WNW,294,4.0,5.0,93,0.00,,,0.00,meteohub,2013-05-29 02:42:00,
2013-05-29 03:47:00,46.0,44.1,29.80,WNW,294,4.0,5.0,93,0.00,,,0.00,meteohub,2013-05-29 02:47:00,
2013-05-29 03:52:00,46.0,44.1,29.79,WNW,294,2.0,5.0,93,0.00,,,0.00,meteohub,2013-05-29 02:52:00,
2013-05-29 03:57:00,46.0,44.4,29.80,WNW,301,2.0,4.0,94,0.00,,,0.00,meteohub,2013-05-29 02:57:00,
2013-05-29 04:02:00,45.9,44.2,29.80,NW,304,1.0,6.0,94,0.00,,,0.00,meteohub,2013-05-29 03:02:00,
2013-05-29 04:07:00,46.0,44.4,29.80,NNW,327,5.0,8.0,94,0.00,,,0.00,meteohub,2013-05-29 03:07:00,
2013-05-29 04:12:00,46.0,44.4,29.80,NNW,327,2.0,8.0,94,0.00,,,0.00,meteohub,2013-05-29 03:12:00,
2013-05-29 04:17:00,46.2,44.6,29.80,North,0,2.0,9.0,94,0.00,,,0.00,meteohub,2013-05-29 03:17:00,
2013-05-29 04:22:00,46.4,44.8,29.80,NNW,333,4.0,9.0,94,0.00,,,0.00,meteohub,2013-05-29 03:22:00,
2013-05-29 04:27:00,46.8,45.1,29.81,North,355,1.0,9.0,94,0.00,,,0.00,meteohub,2013-05-29 03:27:00,
2013-05-29 04:32:00,46.6,45.0,29.81,NNW,336,0.0,8.0,94,0.00,,,0.00,meteohub,2013-05-29 03:32:00,
2013-05-29 04:37:00,46.6,45.0,29.81,North,350,2.0,8.0,94,0.00,,,0.00,meteohub,2013-05-29 03:37:00,
2013-05-29 04:42:00,46.6,45.0,29.81,North,350,4.0,8.0,94,0.00,,,0.00,meteohub,2013-05-29 03:42:00,
2013-05-29 04:47:00,46.6,45.0,29.81,North,350,0.0,6.0,94,0.00,,,0.00,meteohub,2013-05-29 03:47:00,
2013-05-29 04:52:00,46.6,45.0,29.81,North,350,2.0,6.0,94,0.00,,,0.00,meteohub,2013-05-29 03:52:00,
2013-05-29 04:57:00,46.8,45.1,29.81,North,351,4.0,6.0,94,0.00,,,0.00,meteohub,2013-05-29 03:57:00,
2013-05-29 05:02:00,46.8,45.1,29.81,NNW,331,8.0,8.0,94,0.00,,,0.00,meteohub,2013-05-29 04:02:00,
2013-05-29 05:07:00,46.8,45.1,29.81,NNW,333,5.0,8.0,94,0.00,,,0.00,meteohub,2013-05-29 04:07:00,
2013-05-29 05:12:00,46.8,45.1,29.81,NW,323,5.0,8.0,94,0.00,,,0.00,meteohub,2013-05-29 04:12:00,
2013-05-29 05:17:00,46.8,45.1,29.81,NW,314,1.0,8.0,94,0.00,,,0.00,meteohub,2013-05-29 04:17:00,
2013-05-29 05:22:00,46.8,45.1,29.82,NW,315,4.0,9.0,94,0.00,,,0.00,meteohub,2013-05-29 04:22:00,
2013-05-29 05:27:00,46.8,45.1,29.82,NNW,341,2.0,9.0,94,0.00,,,0.00,meteohub,2013-05-29 04:27:00,
2013-05-29 05:32:00,46.8,45.1,29.82,NNW,336,4.0,8.0,94,0.00,,,0.00,meteohub,2013-05-29 04:32:00,
2013-05-29 05:37:00,46.9,45.3,29.82,NW,313,8.0,9.0,94,0.00,,,0.00,meteohub,2013-05-29 04:37:00,
2013-05-29 05:42:00,46.9,45.3,29.82,NNW,331,4.0,9.0,94,0.00,,,0.00,meteohub,2013-05-29 04:42:00,
2013-05-29 05:47:00,46.9,45.3,29.82,NNW,345,1.0,10.0,94,0.00,,,0.00,meteohub,2013-05-29 04:47:00,
2013-05-29 05:52:00,46.9,45.3,29.82,NNW,332,1.0,10.0,94,0.00,,,0.00,meteohub,2013-05-29 04:52:00,
2013-05-29 05:57:00,46.9,45.3,29.82,NNW,332,2.0,9.0,94,0.00,,,0.00,meteohub,2013-05-29 04:57:00,
2013-05-29 06:02:00,46.9,45.3,29.82,NNW,332,2.0,8.0,94,0.00,,,0.00,meteohub,2013-05-29 05:02:00,
2013-05-29 06:07:00,47.1,45.5,29.82,NNW,330,6.0,8.0,94,0.00,,,0.00,meteohub,2013-05-29 05:07:00,
2013-05-29 06:12:00,47.1,45.5,29.82,NNW,346,4.0,9.0,94,0.00,,,0.00,meteohub,2013-05-29 05:12:00,
2013-05-29 06:17:00,47.3,45.7,29.82,NW,325,4.0,9.0,94,0.00,,,0.00,meteohub,2013-05-29 05:17:00,
2013-05-29 06:22:00,47.5,45.9,29.83,NNW,335,5.0,10.0,94,0.00,,,0.00,meteohub,2013-05-29 05:22:00,
2013-05-29 06:27:00,47.5,45.9,29.82,NNW,331,4.0,10.0,94,0.00,,,0.00,meteohub,2013-05-29 05:27:00,
2013-05-29 06:32:00,47.7,46.0,29.82,NW,323,5.0,10.0,94,0.00,,,0.00,meteohub,2013-05-29 05:32:00,
2013-05-29 06:37:00,47.7,46.0,29.82,North,5,8.0,14.0,94,0.00,,,0.00,meteohub,2013-05-29 05:37:00,
2013-05-29 06:42:00,47.8,46.2,29.82,NNW,327,5.0,14.0,94,0.00,,,0.00,meteohub,2013-05-29 05:42:00,
2013-05-29 06:47:00,48.0,46.4,29.83,NNW,341,6.0,13.0,94,0.00,,,0.00,meteohub,2013-05-29 05:47:00,
2013-05-29 06:52:00,48.2,46.6,29.83,NNW,344,6.0,13.0,94,0.00,,,0.00,meteohub,2013-05-29 05:52:00,
2013-05-29 06:57:00,48.4,46.8,29.83,NW,321,6.0,11.0,94,0.00,,,0.00,meteohub,2013-05-29 05:57:00,
2013-05-29 07:02:00,48.4,46.8,29.83,NW,322,8.0,11.0,94,0.00,,,0.00,meteohub,2013-05-29 06:02:00,
2013-05-29 07:07:00,48.6,46.9,29.83,NNW,328,8.0,13.0,94,0.00,,,0.00,meteohub,2013-05-29 06:07:00,
2013-05-29 07:12:00,48.6,46.9,29.84,NNW,336,4.0,13.0,94,0.00,,,0.00,meteohub,2013-05-29 06:12:00,
2013-05-29 07:17:00,48.7,46.8,29.84,NNW,330,6.0,13.0,93,0.00,,,0.00,meteohub,2013-05-29 06:17:00,
2013-05-29 07:22:00,48.7,46.8,29.85,NNE,20,8.0,11.0,93,0.00,,,0.00,meteohub,2013-05-29 06:22:00,
2013-05-29 07:27:00,48.9,46.9,29.85,North,355,8.0,13.0,93,0.00,,,0.00,meteohub,2013-05-29 06:27:00,
2013-05-29 07:32:00,48.9,46.9,29.85,NNW,346,6.0,13.0,93,0.00,,,0.00,meteohub,2013-05-29 06:32:00,
2013-05-29 07:37:00,48.9,46.9,29.86,North,350,6.0,13.0,93,0.00,,,0.00,meteohub,2013-05-29 06:37:00,
2013-05-29 07:42:00,48.9,46.9,29.86,North,5,5.0,11.0,93,0.00,,,0.00,meteohub,2013-05-29 06:42:00,
2013-05-29 07:47:00,49.1,47.1,29.86,NNW,343,8.0,11.0,93,0.00,,,0.00,meteohub,2013-05-29 06:47:00,
2013-05-29 07:52:00,49.1,47.1,29.86,NNW,341,1.0,11.0,93,0.00,,,0.00,meteohub,2013-05-29 06:52:00,
2013-05-29 07:57:00,49.3,47.3,29.87,NNW,344,4.0,15.0,93,0.00,,,0.00,meteohub,2013-05-29 06:57:00,
2013-05-29 08:02:00,49.3,47.3,29.87,North,5,6.0,15.0,93,0.00,,,0.00,meteohub,2013-05-29 07:02:00,
2013-05-29 08:07:00,49.5,47.5,29.87,North,5,2.0,8.0,93,0.00,,,0.00,meteohub,2013-05-29 07:07:00,
2013-05-29 08:12:00,49.5,47.5,29.87,NNW,338,5.0,8.0,93,0.00,,,0.00,meteohub,2013-05-29 07:12:00,
2013-05-29 08:17:00,49.6,47.7,29.88,NNW,340,0.0,8.0,93,0.00,,,0.00,meteohub,2013-05-29 07:17:00,
2013-05-29 08:22:00,49.6,47.7,29.88,NNW,342,4.0,8.0,93,0.00,,,0.00,meteohub,2013-05-29 07:22:00,
2013-05-29 08:27:00,50.0,48.0,29.88,NNW,335,5.0,9.0,93,0.00,,,0.00,meteohub,2013-05-29 07:27:00,
2013-05-29 08:32:00,50.5,48.6,29.88,North,355,5.0,9.0,93,0.00,,,0.00,meteohub,2013-05-29 07:32:00,
2013-05-29 08:42:00,51.4,49.3,29.88,NNW,348,6.0,11.0,92,0.00,,,0.00,meteohub,2013-05-29 07:42:00,
2013-05-29 08:47:00,51.6,49.1,29.88,NNE,18,6.0,11.0,91,0.00,,,0.00,meteohub,2013-05-29 07:47:00,
2013-05-29 08:52:00,52.0,49.5,29.88,North,9,5.0,15.0,91,0.00,,,0.00,meteohub,2013-05-29 07:52:00,
2013-05-29 08:57:00,52.3,49.5,29.89,NNE,26,5.0,15.0,90,0.00,,,0.00,meteohub,2013-05-29 07:57:00,
2013-05-29 09:02:00,53.1,50.2,29.89,North,355,6.0,15.0,90,0.00,,,0.00,meteohub,2013-05-29 08:02:00,
2013-05-29 09:07:00,53.6,50.4,29.89,NNE,16,8.0,13.0,89,0.00,,,0.00,meteohub,2013-05-29 08:07:00,
2013-05-29 09:12:00,54.1,50.4,29.89,NNW,347,5.0,14.0,87,0.00,,,0.00,meteohub,2013-05-29 08:12:00,
2013-05-29 09:17:00,54.1,50.0,29.89,NNW,339,6.0,14.0,86,0.00,,,0.00,meteohub,2013-05-29 08:17:00,
2013-05-29 09:22:00,54.7,50.5,29.89,NNW,338,10.0,14.0,86,0.00,,,0.00,meteohub,2013-05-29 08:22:00,
2013-05-29 09:27:00,55.0,50.5,29.89,North,0,6.0,14.0,85,0.00,,,0.00,meteohub,2013-05-29 08:27:00,
2013-05-29 09:32:00,55.8,51.1,29.89,NNE,26,2.0,13.0,84,0.00,,,0.00,meteohub,2013-05-29 08:32:00,
2013-05-29 09:37:00,56.3,51.3,29.90,NNE,16,6.0,13.0,83,0.00,,,0.00,meteohub,2013-05-29 08:37:00,
2013-05-29 09:42:00,56.7,51.3,29.90,NNW,344,2.0,13.0,82,0.00,,,0.00,meteohub,2013-05-29 08:42:00,
2013-05-29 09:47:00,56.8,51.1,29.90,NW,326,4.0,13.0,81,0.00,,,0.00,meteohub,2013-05-29 08:47:00,
2013-05-29 09:52:00,57.4,51.6,29.90,NNE,15,10.0,14.0,81,0.00,,,0.00,meteohub,2013-05-29 08:52:00,
2013-05-29 09:57:00,57.2,51.1,29.90,NE,46,6.0,14.0,80,0.00,,,0.00,meteohub,2013-05-29 08:57:00,
2013-05-29 10:02:00,57.9,52.2,29.90,NNE,18,5.0,14.0,81,0.00,,,0.00,meteohub,2013-05-29 09:02:00,
2013-05-29 10:07:00,58.8,52.7,29.91,NNE,15,5.0,14.0,80,0.00,,,0.00,meteohub,2013-05-29 09:07:00,
2013-05-29 10:12:00,59.4,52.5,29.91,NNW,331,8.0,11.0,78,0.00,,,0.00,meteohub,2013-05-29 09:12:00,
2013-05-29 10:17:00,59.9,52.7,29.91,North,355,6.0,11.0,77,0.00,,,0.00,meteohub,2013-05-29 09:17:00,
2013-05-29 10:22:00,59.7,52.9,29.91,NE,51,2.0,13.0,78,0.00,,,0.00,meteohub,2013-05-29 09:22:00,
2013-05-29 10:27:00,59.9,52.3,29.91,NNE,16,11.0,13.0,76,0.00,,,0.00,meteohub,2013-05-29 09:27:00,
2013-05-29 10:32:00,60.4,51.4,29.91,ENE,70,11.0,14.0,72,0.00,,,0.00,meteohub,2013-05-29 09:32:00,
2013-05-29 10:37:00,61.0,52.0,29.92,ENE,57,11.0,18.0,72,0.00,,,0.00,meteohub,2013-05-29 09:37:00,
2013-05-29 10:42:00,61.0,52.3,29.92,North,355,9.0,18.0,73,0.00,,,0.00,meteohub,2013-05-29 09:42:00,
2013-05-29 10:47:00,61.5,52.0,29.92,NNE,12,5.0,16.0,71,0.00,,,0.00,meteohub,2013-05-29 09:47:00,
2013-05-29 10:52:00,62.4,52.2,29.92,North,0,4.0,18.0,69,0.00,,,0.00,meteohub,2013-05-29 09:52:00,
2013-05-29 10:57:00,62.4,51.3,29.92,North,355,5.0,18.0,67,0.00,,,0.00,meteohub,2013-05-29 09:57:00,
2013-05-29 11:02:00,62.6,51.4,29.92,NNE,30,6.0,18.0,67,0.00,,,0.00,meteohub,2013-05-29 10:02:00,
2013-05-29 11:07:00,62.8,51.3,29.92,NNW,344,8.0,18.0,66,0.00,,,0.00,meteohub,2013-05-29 10:07:00,
2013-05-29 11:12:00,62.2,50.7,29.92,NW,323,5.0,16.0,66,0.00,,,0.00,meteohub,2013-05-29 10:12:00,
2013-05-29 11:17:00,62.4,51.3,29.93,ENE,65,9.0,18.0,67,0.00,,,0.00,meteohub,2013-05-29 10:17:00,
2013-05-29 11:22:00,63.5,52.0,29.92,North,355,8.0,18.0,66,0.00,,,0.00,meteohub,2013-05-29 10:22:00,
2013-05-29 11:27:00,63.5,52.0,29.93,NNE,15,10.0,15.0,66,0.00,,,0.00,meteohub,2013-05-29 10:27:00,
2013-05-29 11:32:00,63.7,50.9,29.93,NE,41,2.0,15.0,63,0.00,,,0.00,meteohub,2013-05-29 10:32:00,
2013-05-29 11:37:00,64.9,51.6,29.93,East,92,9.0,16.0,62,0.00,,,0.00,meteohub,2013-05-29 10:37:00,
2013-05-29 11:42:00,64.6,52.5,29.93,NE,41,9.0,16.0,65,0.00,,,0.00,meteohub,2013-05-29 10:42:00,
2013-05-29 11:47:00,65.5,52.5,29.93,North,5,4.0,16.0,63,0.00,,,0.00,meteohub,2013-05-29 10:47:00,
2013-05-29 11:52:00,65.8,53.8,29.94,North,5,5.0,15.0,65,0.00,,,0.00,meteohub,2013-05-29 10:52:00,
2013-05-29 11:57:00,66.4,52.9,29.94,North,10,6.0,15.0,62,0.00,,,0.00,meteohub,2013-05-29 10:57:00,
2013-05-29 12:02:00,67.5,53.6,29.94,NNE,28,5.0,15.0,61,0.00,,,0.00,meteohub,2013-05-29 11:02:00,
2013-05-29 12:07:00,67.1,52.7,29.94,North,9,6.0,15.0,60,0.00,,,0.00,meteohub,2013-05-29 11:07:00,
2013-05-29 12:12:00,66.9,52.2,29.94,North,5,6.0,15.0,59,0.00,,,0.00,meteohub,2013-05-29 11:12:00,
2013-05-29 12:17:00,65.8,51.6,29.94,North,5,9.0,19.0,60,0.00,,,0.00,meteohub,2013-05-29 11:17:00,
2013-05-29 12:22:00,66.9,50.7,29.94,NNE,31,4.0,22.0,56,0.00,,,0.00,meteohub,2013-05-29 11:22:00,
2013-05-29 12:27:00,66.6,51.8,29.94,NE,55,11.0,22.0,59,0.00,,,0.00,meteohub,2013-05-29 11:27:00,
2013-05-29 12:32:00,68.2,51.8,29.94,NE,36,10.0,19.0,56,0.00,,,0.00,meteohub,2013-05-29 11:32:00,
2013-05-29 12:37:00,68.7,51.4,29.94,NE,36,4.0,19.0,54,0.00,,,0.00,meteohub,2013-05-29 11:37:00,
2013-05-29 12:42:00,68.4,50.5,29.95,NE,46,6.0,15.0,53,0.00,,,0.00,meteohub,2013-05-29 11:42:00,
2013-05-29 12:47:00,67.5,49.8,29.95,North,9,5.0,18.0,53,0.00,,,0.00,meteohub,2013-05-29 11:47:00,
2013-05-29 12:52:00,67.3,50.0,29.95,North,5,5.0,18.0,54,0.00,,,0.00,meteohub,2013-05-29 11:52:00,
2013-05-29 12:57:00,68.0,50.7,29.95,NE,47,11.0,18.0,54,0.00,,,0.00,meteohub,2013-05-29 11:57:00,
2013-05-29 13:02:00,67.8,50.0,29.96,North,9,8.0,19.0,53,0.00,,,0.00,meteohub,2013-05-29 12:02:00,
2013-05-29 13:07:00,68.9,52.0,29.96,NNE,12,8.0,19.0,55,0.00,,,0.00,meteohub,2013-05-29 12:07:00,
2013-05-29 13:12:00,69.1,50.7,29.96,NNE,12,5.0,19.0,52,0.00,,,0.00,meteohub,2013-05-29 12:12:00,
2013-05-29 13:17:00,67.6,49.8,29.96,NW,313,6.0,22.0,53,0.00,,,0.00,meteohub,2013-05-29 12:17:00,
2013-05-29 13:22:00,67.8,51.6,29.96,NE,40,13.0,22.0,56,0.00,,,0.00,meteohub,2013-05-29 12:22:00,
2013-05-29 13:27:00,68.5,50.2,29.96,ENE,63,9.0,22.0,52,0.00,,,0.00,meteohub,2013-05-29 12:27:00,
2013-05-29 13:32:00,68.9,50.5,29.96,North,11,10.0,20.0,52,0.00,,,0.00,meteohub,2013-05-29 12:32:00,
2013-05-29 13:37:00,68.7,49.8,29.97,NW,321,8.0,20.0,51,0.00,,,0.00,meteohub,2013-05-29 12:37:00,
2013-05-29 13:42:00,68.9,50.0,29.97,NNE,30,5.0,16.0,51,0.00,,,0.00,meteohub,2013-05-29 12:42:00,
2013-05-29 13:47:00,69.1,49.6,29.97,NNW,333,22.0,22.0,50,0.00,,,0.00,meteohub,2013-05-29 12:47:00,
2013-05-29 13:52:00,68.0,48.7,29.97,North,5,10.0,22.0,50,0.00,,,0.00,meteohub,2013-05-29 12:52:00,
2013-05-29 13:57:00,68.9,50.5,29.97,NE,48,5.0,22.0,52,0.00,,,0.00,meteohub,2013-05-29 12:57:00,
2013-05-29 14:02:00,70.0,51.6,29.98,NW,323,10.0,22.0,52,0.00,,,0.00,meteohub,2013-05-29 13:02:00,
2013-05-29 14:07:00,69.1,50.2,29.98,NNE,18,5.0,16.0,51,0.00,,,0.00,meteohub,2013-05-29 13:07:00,
2013-05-29 14:12:00,70.3,51.4,29.98,NNW,344,9.0,16.0,51,0.00,,,0.00,meteohub,2013-05-29 13:12:00,
2013-05-29 14:17:00,70.7,50.5,29.98,NNE,25,13.0,16.0,49,0.00,,,0.00,meteohub,2013-05-29 13:17:00,
2013-05-29 14:22:00,70.5,49.3,29.98,NNW,346,8.0,18.0,47,0.00,,,0.00,meteohub,2013-05-29 13:22:00,
2013-05-29 14:27:00,70.5,50.4,29.98,NE,56,4.0,18.0,49,0.00,,,0.00,meteohub,2013-05-29 13:27:00,
2013-05-29 14:32:00,72.1,50.2,29.98,North,355,10.0,18.0,46,0.00,,,0.00,meteohub,2013-05-29 13:32:00,
2013-05-29 14:37:00,71.4,48.9,29.98,NNE,19,4.0,18.0,45,0.00,,,0.00,meteohub,2013-05-29 13:37:00,
2013-05-29 14:42:00,72.0,49.5,29.98,North,355,11.0,18.0,45,0.00,,,0.00,meteohub,2013-05-29 13:42:00,
2013-05-29 14:47:00,70.9,49.1,29.98,NW,319,9.0,18.0,46,0.00,,,0.00,meteohub,2013-05-29 13:47:00,
2013-05-29 14:52:00,70.9,48.6,29.98,NNW,346,5.0,18.0,45,0.00,,,0.00,meteohub,2013-05-29 13:52:00,
2013-05-29 14:57:00,70.9,49.6,29.98,ENE,67,6.0,18.0,47,0.00,,,0.00,meteohub,2013-05-29 13:57:00,
2013-05-29 15:02:00,71.4,49.6,29.98,NNE,22,5.0,19.0,46,0.00,,,0.00,meteohub,2013-05-29 14:02:00,
2013-05-29 15:07:00,72.0,49.5,29.98,NE,55,8.0,19.0,45,0.00,,,0.00,meteohub,2013-05-29 14:07:00,
2013-05-29 15:12:00,72.0,48.9,29.98,NNE,32,4.0,19.0,44,0.00,,,0.00,meteohub,2013-05-29 14:12:00,
2013-05-29 15:17:00,72.7,50.2,29.99,NE,37,6.0,19.0,45,0.00,,,0.00,meteohub,2013-05-29 14:17:00,
2013-05-29 15:22:00,72.0,50.0,29.99,North,355,4.0,19.0,46,0.00,,,0.00,meteohub,2013-05-29 14:22:00,
2013-05-29 15:27:00,73.0,50.4,29.99,NE,47,11.0,18.0,45,0.00,,,0.00,meteohub,2013-05-29 14:27:00,
2013-05-29 15:32:00,72.1,49.6,29.99,NNW,340,14.0,18.0,45,0.00,,,0.00,meteohub,2013-05-29 14:32:00,
2013-05-29 15:37:00,71.8,49.3,29.99,ENE,57,4.0,18.0,45,0.00,,,0.00,meteohub,2013-05-29 14:37:00,
2013-05-29 15:42:00,72.0,48.2,29.99,NW,325,11.0,18.0,43,0.00,,,0.00,meteohub,2013-05-29 14:42:00,
2013-05-29 15:47:00,72.7,49.5,29.99,NNE,23,2.0,19.0,44,0.00,,,0.00,meteohub,2013-05-29 14:47:00,
2013-05-29 15:52:00,73.0,48.0,29.99,North,9,6.0,19.0,41,0.00,,,0.00,meteohub,2013-05-29 14:52:00,
2013-05-29 15:57:00,71.6,48.6,29.99,NNW,344,8.0,19.0,44,0.00,,,0.00,meteohub,2013-05-29 14:57:00,
2013-05-29 16:02:00,71.4,47.1,29.99,NE,43,10.0,19.0,42,0.00,,,0.00,meteohub,2013-05-29 15:02:00,
2013-05-29 16:07:00,72.3,49.1,29.99,NNE,15,10.0,19.0,44,0.00,,,0.00,meteohub,2013-05-29 15:07:00,
2013-05-29 16:12:00,72.7,48.9,29.99,NNW,347,10.0,19.0,43,0.00,,,0.00,meteohub,2013-05-29 15:12:00,
2013-05-29 16:17:00,72.3,49.1,29.99,NNW,338,2.0,15.0,44,0.00,,,0.00,meteohub,2013-05-29 15:17:00,
2013-05-29 16:22:00,72.3,49.1,29.99,North,349,9.0,15.0,44,0.00,,,0.00,meteohub,2013-05-29 15:22:00,
2013-05-29 16:27:00,72.0,48.2,29.99,NNE,12,8.0,18.0,43,0.00,,,0.00,meteohub,2013-05-29 15:27:00,
2013-05-29 16:32:00,71.6,47.8,29.99,NW,315,9.0,20.0,43,0.00,,,0.00,meteohub,2013-05-29 15:32:00,
2013-05-29 16:37:00,71.8,48.0,29.99,NNW,328,13.0,20.0,43,0.00,,,0.00,meteohub,2013-05-29 15:37:00,
2013-05-29 16:42:00,71.4,47.8,29.99,NW,312,11.0,20.0,43,0.00,,,0.00,meteohub,2013-05-29 15:42:00,
2013-05-29 16:47:00,71.8,48.0,30.00,North,11,10.0,18.0,43,0.00,,,0.00,meteohub,2013-05-29 15:47:00,
2013-05-29 16:52:00,71.4,49.6,30.00,NNW,327,14.0,18.0,46,0.00,,,0.00,meteohub,2013-05-29 15:52:00,
2013-05-29 16:57:00,71.1,49.3,30.00,North,355,6.0,18.0,46,0.00,,,0.00,meteohub,2013-05-29 15:57:00,
2013-05-29 17:02:00,71.1,49.3,30.00,North,350,10.0,18.0,46,0.00,,,0.00,meteohub,2013-05-29 16:02:00,
2013-05-29 17:07:00,71.1,49.3,30.00,NW,318,11.0,20.0,46,0.00,,,0.00,meteohub,2013-05-29 16:07:00,
2013-05-29 17:12:00,70.5,49.8,30.00,NW,309,8.0,20.0,48,0.00,,,0.00,meteohub,2013-05-29 16:12:00,
2013-05-29 17:17:00,71.8,49.3,30.00,North,355,11.0,20.0,45,0.00,,,0.00,meteohub,2013-05-29 16:17:00,
2013-05-29 17:22:00,70.9,49.1,30.00,NNW,343,9.0,19.0,46,0.00,,,0.00,meteohub,2013-05-29 16:22:00,
2013-05-29 17:27:00,71.1,50.4,30.01,NNE,28,9.0,16.0,48,0.00,,,0.00,meteohub,2013-05-29 16:27:00,
2013-05-29 17:32:00,70.5,49.3,30.01,NE,41,8.0,19.0,47,0.00,,,0.00,meteohub,2013-05-29 16:32:00,
2013-05-29 17:37:00,71.6,49.6,30.01,NNE,18,9.0,19.0,46,0.00,,,0.00,meteohub,2013-05-29 16:37:00,
2013-05-29 17:42:00,70.5,48.7,30.01,NW,325,9.0,19.0,46,0.00,,,0.00,meteohub,2013-05-29 16:42:00,
2013-05-29 17:47:00,70.9,49.6,30.01,NNW,340,10.0,19.0,47,0.00,,,0.00,meteohub,2013-05-29 16:47:00,
2013-05-29 17:52:00,69.8,48.7,30.01,North,355,16.0,19.0,47,0.00,,,0.00,meteohub,2013-05-29 16:52:00,
2013-05-29 17:57:00,69.8,49.3,30.01,NE,40,8.0,21.0,48,0.00,,,0.00,meteohub,2013-05-29 16:57:00,
2013-05-29 18:02:00,70.3,50.4,30.01,North,5,5.0,21.0,49,0.00,,,0.00,meteohub,2013-05-29 17:02:00,
2013-05-29 18:07:00,70.0,50.5,30.02,North,355,10.0,18.0,50,0.00,,,0.00,meteohub,2013-05-29 17:07:00,
2013-05-29 18:12:00,69.3,50.9,30.02,NNW,331,19.0,19.0,52,0.00,,,0.00,meteohub,2013-05-29 17:12:00,
2013-05-29 18:17:00,68.5,50.7,30.02,NW,323,16.0,19.0,53,0.00,,,0.00,meteohub,2013-05-29 17:17:00,
2013-05-29 18:22:00,68.4,50.5,30.02,NNW,337,13.0,22.0,53,0.00,,,0.00,meteohub,2013-05-29 17:22:00,
2013-05-29 18:27:00,67.5,49.8,30.03,North,5,15.0,24.0,53,0.00,,,0.00,meteohub,2013-05-29 17:27:00,
2013-05-29 18:32:00,66.9,49.3,30.03,NW,312,11.0,26.0,53,0.00,,,0.00,meteohub,2013-05-29 17:32:00,
2013-05-29 18:37:00,66.4,48.7,30.03,NNW,331,15.0,26.0,53,0.00,,,0.00,meteohub,2013-05-29 17:37:00,
2013-05-29 18:42:00,66.7,49.1,30.03,North,355,6.0,26.0,53,0.00,,,0.00,meteohub,2013-05-29 17:42:00,
2013-05-29 18:47:00,66.4,48.7,30.04,WNW,302,16.0,25.0,53,0.00,,,0.00,meteohub,2013-05-29 17:47:00,
2013-05-29 18:52:00,65.7,47.5,30.04,NNW,338,13.0,22.0,52,0.00,,,0.00,meteohub,2013-05-29 17:52:00,
2013-05-29 18:57:00,65.7,48.0,30.04,NNW,339,16.0,21.0,53,0.00,,,0.00,meteohub,2013-05-29 17:57:00,
2013-05-29 19:02:00,65.7,47.5,30.04,NNW,338,14.0,25.0,52,0.00,,,0.00,meteohub,2013-05-29 18:02:00,
2013-05-29 19:07:00,65.5,47.5,30.04,North,5,14.0,25.0,52,0.00,,,0.00,meteohub,2013-05-29 18:07:00,
2013-05-29 19:12:00,65.3,47.3,30.04,NW,309,6.0,25.0,52,0.00,,,0.00,meteohub,2013-05-29 18:12:00,
2013-05-29 19:17:00,64.8,47.3,30.05,NNW,331,13.0,25.0,53,0.00,,,0.00,meteohub,2013-05-29 18:17:00,
2013-05-29 19:22:00,64.2,46.2,30.05,NNW,329,16.0,25.0,52,0.00,,,0.00,meteohub,2013-05-29 18:22:00,
2013-05-29 19:27:00,64.2,46.2,30.05,North,5,6.0,25.0,52,0.00,,,0.00,meteohub,2013-05-29 18:27:00,
2013-05-29 19:32:00,64.2,46.8,30.05,North,350,13.0,20.0,53,0.00,,,0.00,meteohub,2013-05-29 18:32:00,
2013-05-29 19:37:00,64.0,47.1,30.05,North,5,8.0,20.0,54,0.00,,,0.00,meteohub,2013-05-29 18:37:00,
2013-05-29 19:42:00,63.9,46.9,30.05,NNW,346,11.0,20.0,54,0.00,,,0.00,meteohub,2013-05-29 18:42:00,
2013-05-29 19:47:00,63.7,46.2,30.05,NNE,16,15.0,20.0,53,0.00,,,0.00,meteohub,2013-05-29 18:47:00,
2013-05-29 19:52:00,63.3,46.4,30.05,NW,317,6.0,19.0,54,0.00,,,0.00,meteohub,2013-05-29 18:52:00,
2013-05-29 19:57:00,63.1,46.2,30.05,NNW,338,13.0,20.0,54,0.00,,,0.00,meteohub,2013-05-29 18:57:00,
2013-05-29 20:02:00,62.8,46.4,30.05,North,355,6.0,21.0,55,0.00,,,0.00,meteohub,2013-05-29 19:02:00,
2013-05-29 20:07:00,62.8,46.4,30.06,NNE,22,13.0,21.0,55,0.00,,,0.00,meteohub,2013-05-29 19:07:00,
2013-05-29 20:17:00,62.2,46.4,30.06,NW,325,4.0,20.0,56,0.00,,,0.00,meteohub,2013-05-29 19:17:00,
2013-05-29 20:22:00,62.1,46.6,30.06,NNE,16,10.0,20.0,57,0.00,,,0.00,meteohub,2013-05-29 19:22:00,
2013-05-29 20:27:00,61.9,46.9,30.07,NW,319,10.0,20.0,58,0.00,,,0.00,meteohub,2013-05-29 19:27:00,
2013-05-29 20:32:00,61.5,46.6,30.07,NNW,331,2.0,19.0,58,0.00,,,0.00,meteohub,2013-05-29 19:32:00,
2013-05-29 20:37:00,61.3,46.4,30.07,NW,313,14.0,16.0,58,0.00,,,0.00,meteohub,2013-05-29 19:37:00,
2013-05-29 20:42:00,61.2,46.8,30.07,NNW,328,5.0,16.0,59,0.00,,,0.00,meteohub,2013-05-29 19:42:00,
2013-05-29 20:47:00,61.0,46.9,30.07,North,5,9.0,15.0,60,0.00,,,0.00,meteohub,2013-05-29 19:47:00,
2013-05-29 20:52:00,60.6,46.6,30.07,NNW,335,5.0,15.0,60,0.00,,,0.00,meteohub,2013-05-29 19:52:00,
2013-05-29 20:57:00,60.4,47.3,30.08,North,5,8.0,14.0,62,0.00,,,0.00,meteohub,2013-05-29 19:57:00,
2013-05-29 21:02:00,60.1,47.5,30.08,NW,319,5.0,11.0,63,0.00,,,0.00,meteohub,2013-05-29 20:02:00,
2013-05-29 21:07:00,59.7,47.1,30.08,NNW,340,6.0,11.0,63,0.00,,,0.00,meteohub,2013-05-29 20:07:00,
2013-05-29 21:12:00,59.5,47.3,30.08,NNE,17,2.0,13.0,64,0.00,,,0.00,meteohub,2013-05-29 20:12:00,
2013-05-29 21:17:00,59.4,47.1,30.08,NW,324,6.0,13.0,64,0.00,,,0.00,meteohub,2013-05-29 20:17:00,
2013-05-29 21:22:00,59.2,47.5,30.08,North,355,4.0,11.0,65,0.00,,,0.00,meteohub,2013-05-29 20:22:00,
2013-05-29 21:27:00,59.0,47.3,30.08,North,350,4.0,11.0,65,0.00,,,0.00,meteohub,2013-05-29 20:27:00,
2013-05-29 21:32:00,58.6,47.7,30.08,NW,304,6.0,10.0,67,0.00,,,0.00,meteohub,2013-05-29 20:32:00,
2013-05-29 21:37:00,58.3,47.8,30.09,NW,317,8.0,13.0,68,0.00,,,0.00,meteohub,2013-05-29 20:37:00,
2013-05-29 21:42:00,58.1,47.7,30.09,NNW,344,9.0,13.0,68,0.00,,,0.00,meteohub,2013-05-29 20:42:00,
2013-05-29 21:47:00,57.9,47.5,30.09,NNW,334,4.0,13.0,68,0.00,,,0.00,meteohub,2013-05-29 20:47:00,
2013-05-29 21:52:00,57.7,47.7,30.09,North,5,9.0,13.0,69,0.00,,,0.00,meteohub,2013-05-29 20:52:00,
2013-05-29 21:57:00,57.7,47.7,30.09,NNW,342,9.0,11.0,69,0.00,,,0.00,meteohub,2013-05-29 20:57:00,
2013-05-29 22:02:00,57.6,47.5,30.09,NNE,19,5.0,9.0,69,0.00,,,0.00,meteohub,2013-05-29 21:02:00,
2013-05-29 22:07:00,57.2,47.5,30.09,North,351,5.0,10.0,70,0.00,,,0.00,meteohub,2013-05-29 21:07:00,
2013-05-29 22:12:00,56.8,47.5,30.10,NNW,340,8.0,10.0,71,0.00,,,0.00,meteohub,2013-05-29 21:12:00,
2013-05-29 22:17:00,56.7,47.3,30.10,NW,317,8.0,10.0,71,0.00,,,0.00,meteohub,2013-05-29 21:17:00,
2013-05-29 22:22:00,56.7,47.7,30.10,NW,325,5.0,10.0,72,0.00,,,0.00,meteohub,2013-05-29 21:22:00,
2013-05-29 22:27:00,56.3,47.5,30.10,North,355,4.0,10.0,72,0.00,,,0.00,meteohub,2013-05-29 21:27:00,
2013-05-29 22:32:00,56.1,47.7,30.10,NNE,22,5.0,9.0,73,0.00,,,0.00,meteohub,2013-05-29 21:32:00,
2013-05-29 22:37:00,55.9,47.5,30.10,North,355,5.0,11.0,73,0.00,,,0.00,meteohub,2013-05-29 21:37:00,
2013-05-29 22:42:00,55.8,47.3,30.11,NW,325,5.0,11.0,73,0.00,,,0.00,meteohub,2013-05-29 21:42:00,
2013-05-29 22:47:00,55.8,47.7,30.11,NNW,348,6.0,11.0,74,0.00,,,0.00,meteohub,2013-05-29 21:47:00,
2013-05-29 22:52:00,55.6,47.5,30.11,NNE,20,5.0,10.0,74,0.00,,,0.00,meteohub,2013-05-29 21:52:00,
2013-05-29 22:57:00,55.2,47.1,30.11,NNW,332,6.0,10.0,74,0.00,,,0.00,meteohub,2013-05-29 21:57:00,
2013-05-29 23:02:00,55.0,47.3,30.11,North,355,2.0,11.0,75,0.00,,,0.00,meteohub,2013-05-29 22:02:00,
2013-05-29 23:07:00,54.9,47.1,30.11,NNW,337,6.0,11.0,75,0.00,,,0.00,meteohub,2013-05-29 22:07:00,
2013-05-29 23:12:00,54.7,47.3,30.11,NNW,338,10.0,11.0,76,0.00,,,0.00,meteohub,2013-05-29 22:12:00,
2013-05-29 23:17:00,54.7,47.3,30.11,North,349,8.0,10.0,76,0.00,,,0.00,meteohub,2013-05-29 22:17:00,
2013-05-29 23:22:00,54.3,46.9,30.11,NNW,333,4.0,13.0,76,0.00,,,0.00,meteohub,2013-05-29 22:22:00,
2013-05-29 23:27:00,54.1,47.1,30.12,NNW,348,9.0,13.0,77,0.00,,,0.00,meteohub,2013-05-29 22:27:00,
2013-05-29 23:32:00,54.0,46.9,30.12,NW,317,6.0,14.0,77,0.00,,,0.00,meteohub,2013-05-29 22:32:00,
2013-05-29 23:37:00,53.8,46.8,30.12,NNW,338,4.0,14.0,77,0.00,,,0.00,meteohub,2013-05-29 22:37:00,
2013-05-29 23:42:00,53.6,46.9,30.12,NNW,344,1.0,14.0,78,0.00,,,0.00,meteohub,2013-05-29 22:42:00,
2013-05-29 23:47:00,53.4,47.1,30.12,NNW,332,4.0,10.0,79,0.00,,,0.00,meteohub,2013-05-29 22:47:00,
2013-05-29 23:52:00,53.2,46.9,30.12,NNW,335,5.0,11.0,79,0.00,,,0.00,meteohub,2013-05-29 22:52:00,
2013-05-29 23:57:00,52.9,46.6,30.13,NNW,328,6.0,11.0,79,0.00,,,0.00,meteohub,2013-05-29 22:57:00,